Location: Plum
(40.5000°N, 79.7500°W)
Time: 05:33:54
(UTC-04:00)

Daily predictions for brighter satellites

Satellite Brightness Start Highest point End
(mag) Time Altitude Azimuth Time Altitude Azimuth Time Altitude Azimuth
Cosmos 2219 Rocket 3.0 00:00:02 10° NW 00:05:11 39° WSW 00:06:29 34° SW
NOSS 2-3 (C) 4.4 00:09:53 44° E 00:09:53 44° E 00:14:33 10° NE
Cosmos 2184 Rocket 4.5 00:08:33 40° ESE 00:09:36 43° E 00:15:23 10° NNE
CZ-4B R/B 3.6 00:10:33 19° NE 00:10:33 19° NE 00:12:32 10° NNE
Cosmos 1125 Rocket 3.4 00:10:01 62° SSW 00:10:57 88° ESE 00:16:18 10° NNE
Meteor 1-26 Rocket 4.3 00:07:10 10° N 00:12:44 62° E 00:13:42 53° ESE
Cosmos 1048 Rocket 4.1 00:07:35 10° NNW 00:12:57 70° ENE 00:13:46 60° ESE
SeaSat 1 2.5 00:12:26 59° ESE 00:13:09 68° ENE 00:18:04 10° NNW
Cosmos 1980 4.4 00:17:14 10° NW 00:22:27 39° WSW 00:23:22 37° SW
Lacrosse 4 Rocket 1.6 00:20:20 10° NNW 00:24:39 71° NE 00:24:39 71° NE
NOSS 2-3 (D) 3.9 00:30:30 68° ESE 00:30:30 68° ESE 00:35:50 10° NE
ASTEX 1 3.9 00:26:40 10° NNE 00:31:11 45° E 00:31:11 45° E
Cosmos 2237 Rocket 3.2 00:30:12 10° NW 00:35:16 34° WSW 00:36:00 33° WSW
Aureole 2 Rocket 4.4 00:32:52 10° N 00:34:34 24° NNE 00:34:34 24° NNE
Cosmos 1869 Rocket 4.0 00:39:10 54° W 00:39:14 54° W 00:43:38 10° N
Cosmos 372 Rocket 3.8 00:40:24 76° SSW 00:40:50 86° WNW 00:46:06 10° NNE
Cosmos 1733 Rocket 4.1 00:41:41 37° ENE 00:41:41 37° ENE 00:45:11 10° NNE
Cosmos 158 Rocket 4.1 00:36:23 10° NNW 00:41:40 64° ENE 00:42:06 61° E
Meteor 2-3 Rocket 3.6 00:41:29 68° SSE 00:42:11 80° E 00:47:56 10° NNE
Landsat 5 4.1 00:42:32 52° ENE 00:42:32 52° ENE 00:46:50 10° N
Cosmos 1892 4.1 00:44:30 32° NE 00:44:30 32° NE 00:46:52 10° NNE
CZ-4C R/B 4.3 00:44:58 40° NNW 00:44:58 40° NNW 00:47:21 10° NNW
Cosmos 44 4.5 00:48:37 34° E 00:48:37 34° E 00:52:40 10° NE
ALOS 2 2.7 00:48:22 73° N 00:48:22 73° N 00:52:23 10° N
COSMOS 2455 2.9 00:43:03 10° NW 00:48:59 61° WSW 00:49:34 58° SW
H-2A R/B 2.8 00:46:11 10° NNE 00:49:51 67° NNE 00:49:51 67° NNE
ATLAS 2AS CENTAUR R/B 3.8 00:50:54 10° WSW 00:58:10 48° NW 01:05:57 10° NNE
In-Cosmos 22 Rocket 4.3 00:57:27 59° SW 00:58:19 68° W 01:04:05 10° N
Meteor 2-7 Rocket 4.5 00:57:00 10° N 01:02:31 89° W 01:02:58 77° S
Cosmos 1825 4.5 01:10:18 17° ENE 01:10:18 17° ENE 01:11:59 10° NE
Okean 1-7 4.3 01:05:43 10° NNW 01:08:58 30° WNW 01:08:58 30° WNW
Helios 1A Rocket 3.4 01:08:31 10° NNE 01:11:55 57° NNE 01:11:55 57° NNE
Cosmos 2074 Rocket 4.4 01:13:11 45° WSW 01:14:40 55° W 01:20:51 10° N
Cosmos 1610 Rocket 4.4 01:13:49 64° SSW 01:14:49 80° W 01:20:58 10° N
Cosmos 1782 3.7 01:10:57 10° N 01:14:00 46° NNE 01:14:00 46° NNE
Nadezhda 3 Rocket 4.0 01:09:23 10° N 01:15:36 70° E 01:16:43 58° SE
ATLAS 3B R/B 3.0 01:10:18 10° NW 01:16:48 44° WSW 01:17:16 44° SW
Cosmos 2263 Rocket 3.5 01:19:12 27° E 01:19:12 27° E 01:23:47 10° NE
Cosmos 2251 Rocket 3.4 01:13:56 10° NNW 01:19:17 79° WSW 01:19:20 79° WSW
Cosmos 1340 Rocket 3.7 01:21:31 46° NNW 01:21:31 46° NNW 01:24:29 10° N
Geosat 3.8 01:16:58 10° NNE 01:22:02 90° ENE 01:22:08 87° SSW
Cosmos 44 Rocket 4.1 01:21:06 44° W 01:22:09 51° NW 01:27:17 10° NNE
CZ-2C R/B 4.0 01:21:35 39° ESE 01:22:59 46° ENE 01:28:21 10° N
USA 238 DEB 3.6 01:17:05 10° NW 01:24:10 84° WSW 01:25:50 56° SSE
USA 238 3.6 01:17:12 10° NW 01:24:16 85° WSW 01:25:57 56° SSE
GEOS 3 Rocket 4.2 01:27:38 43° W 01:27:38 43° W 01:31:59 10° NW
SL-16 R/B 3.4 01:23:08 10° NW 01:27:44 28° W 01:27:44 28° W
Cosmos 2227 4.4 01:28:50 55° WSW 01:29:46 63° WNW 01:35:25 10° NNE
Cosmos 1674 Rocket 3.9 01:26:02 10° N 01:29:52 64° NNW 01:29:52 64° NNW
Cosmos 1607 3.8 01:30:51 10° NNW 01:37:02 82° ENE 01:38:19 58° SE
Cosmos 921 Rocket 3.4 01:38:18 58° N 01:38:18 58° N 01:41:45 10° NNE
CZ-4C R/B 3.1 01:32:19 10° NNW 01:39:24 68° NE 01:43:31 30° SE
Meteor 2-10 Rocket 4.1 01:35:01 10° NNW 01:40:25 50° W 01:40:45 49° WSW
Cosmos 1975 Rocket 3.9 01:36:17 10° N 01:40:19 41° ENE 01:40:19 41° ENE
Cosmos 2084 Rocket 4.4 01:41:26 40° NNW 01:41:26 40° NNW 01:44:31 10° NNE
CZ-4B R/B 4.0 01:44:19 16° WNW 01:44:19 16° WNW 01:45:23 10° NW
Cosmos 2154 Rocket 4.1 01:41:41 57° SW 01:42:52 69° W 01:49:09 10° N
Meteor 1-27 Rocket 3.7 01:38:09 10° N 01:44:01 82° E 01:44:47 68° SSE
CZ-2C R/B 2.4 01:40:41 10° N 01:45:55 80° WNW 01:46:13 76° WSW
Cosmos 1908 Rocket 3.8 01:47:05 66° N 01:47:05 66° N 01:50:51 10° N
USA 234 4.4 01:41:24 10° E 01:47:24 41° NNE 01:53:25 10° NW
Cosmos 494 Rocket 4.1 01:44:58 10° NNW 01:49:59 60° W 01:49:59 60° W
Cosmos 1943 3.3 01:46:28 10° NNW 01:52:11 73° ENE 01:53:13 58° SE
Cosmos 1295 Rocket 4.4 01:52:21 61° S 01:53:32 82° E 01:59:54 10° N
Cosmos 1862 3.9 01:58:08 55° N 01:58:08 55° N 02:01:21 10° N
NOSS 3-2 (C) 4.3 01:50:24 10° NNW 01:57:52 65° NE 02:03:50 19° SE
Cosmos 1603 4.4 01:56:34 10° NW 02:01:33 39° W 02:01:33 39° W
Cosmos 1606 3.8 01:58:46 10° NNW 02:01:27 40° NW 02:01:27 40° NW
FALCON 9 R/B 4.5 01:59:59 10° W 02:03:14 17° WSW 02:03:14 17° WSW
Cosmos 1238 Rocket 4.1 02:07:44 10° NNW 02:10:17 30° NW 02:10:17 30° NW
Cosmos 2341 Rocket 4.5 02:13:16 42° WSW 02:14:43 49° WNW 02:20:54 10° N
NOSS 3-4 (A) 3.5 02:17:55 53° SW 02:19:34 85° NW 02:26:11 10° NNE
NOSS 3-4 (C) 3.5 02:18:01 54° SW 02:19:40 85° WNW 02:26:17 10° NNE
SL-08 R/B 4.4 02:18:53 57° S 02:20:17 88° E 02:26:37 10° N
Okean 3 4.0 02:16:45 10° NNW 02:20:24 52° WNW 02:20:24 52° WNW
NOSS 3-2 (A) 3.9 02:14:01 10° NW 02:21:35 83° WSW 02:25:29 34° SSE
Cosmos 1959 Rocket 4.4 02:24:23 56° SSW 02:25:50 81° W 02:32:06 10° N
SL-8 Rocket 4.2 02:30:12 48° SW 02:31:41 61° W 02:37:58 10° N
Cosmos 1371 Rocket 3.9 02:37:07 64° SSW 02:37:59 87° WNW 02:43:23 10° NNE
Cosmos 2056 Rocket 3.5 02:38:19 59° SSE 02:39:11 71° ESE 02:44:26 10° NNE
CRYOSAT 2 4.3 02:34:23 10° N 02:39:15 77° E 02:39:55 65° SSE
Cosmos 1408 4.2 02:39:55 27° WNW 02:39:55 27° WNW 02:42:34 10° NNW
BREEZE-M DEB (TANK) 3.7 02:28:28 10° WNW 02:39:28 73° SW 02:40:42 48° SE
Cosmos 2218 Rocket 4.1 02:37:59 48° SW 02:39:34 64° W 02:45:52 10° N
Cosmos 1339 Rocket 4.4 02:33:57 10° N 02:40:04 78° E 02:42:10 43° SSE
Cosmos 1825 3.9 02:45:14 24° WNW 02:45:14 24° WNW 02:47:51 10° NNW
ERS-2 3.6 02:41:38 10° NE 02:44:53 28° E 02:44:57 28° E
Meteor 2-19 Rocket 4.4 02:43:48 48° S 02:45:41 82° E 02:51:53 10° N
Cosmos 407 Rocket 4.3 02:41:42 10° N 02:46:41 48° ENE 02:49:43 23° SE
Cosmos 1812 3.9 02:45:11 10° N 02:48:50 37° ENE 02:49:35 34° ESE
Okean 2 Rocket 4.1 02:51:20 33° W 02:51:30 33° WNW 02:55:36 10° NNW
Cosmos 2366 rocket 4.2 02:53:00 43° SW 02:54:40 55° W 03:00:45 10° N
Meteor 2-8 Rocket 4.4 02:52:36 10° NNW 02:58:39 69° W 03:00:30 45° SSW
Cosmos 1844 Rocket 3.5 02:58:18 31° SSE 03:00:14 41° ESE 03:05:31 10° NE
Cosmos 2263 Rocket 3.0 03:00:53 32° WSW 03:02:46 42° WNW 03:08:10 10° N
Okean 1 4.0 02:58:54 10° N 03:02:47 49° E 03:03:47 39° ESE
SL-27 R/B 3.5 02:59:58 10° N 03:03:29 44° ENE 03:04:27 35° ESE
Cosmos 909 Rocket 4.2 03:01:27 41° SW 03:03:56 79° WNW 03:11:19 10° NNE
RESURS DK-1 3.3 03:12:15 35° W 03:12:51 37° WNW 03:16:44 10° N
SL-24 DEB 4.2 03:09:49 10° N 03:14:29 85° E 03:15:46 49° S
Cosmos 1727 Rocket 4.5 03:10:58 10° NNW 03:16:48 43° W 03:18:33 35° SW
Abrixas rocket 3.1 03:16:30 42° NW 03:16:55 44° NNW 03:20:09 10° NE
COSMOS 2406 3.2 03:13:00 10° NNW 03:18:49 88° WSW 03:22:28 24° SSE
Cosmos 1867 4.0 03:14:34 10° NW 03:19:38 39° WSW 03:19:56 39° WSW
Cosmos 1300 Rocket 3.4 03:18:47 54° S 03:19:46 85° E 03:24:09 10° N
Cosmos 2278 Rocket 3.6 03:18:50 18° SSE 03:21:57 30° ESE 03:26:49 10° NE
Meteor 1-25 Rocket 4.3 03:20:05 40° SSW 03:22:07 69° W 03:27:55 10° N
IRS-P3 4.2 03:17:14 10° N 03:22:33 66° WNW 03:24:25 40° SW
USA 161 3.1 03:23:19 26° ESE 03:24:00 30° ENE 03:26:37 10° N
ATLAS 5 CENTAUR R/B 4.4 03:19:17 10° NNW 03:24:22 29° NE 03:29:44 10° ESE
Iridium 4 Rocket 3.9 03:20:56 10° NNW 03:25:22 42° W 03:26:21 37° WSW
CZ-4C R/B 3.8 03:21:39 10° WNW 03:27:40 28° WSW 03:28:38 27° WSW
Cosmos 1242 Rocket 4.2 03:24:56 10° NW 03:26:54 22° WNW 03:26:54 22° WNW
Cosmos 1536 Rocket 4.2 03:26:05 10° NNW 03:30:07 36° W 03:30:27 36° WSW
USA 234 3.1 03:23:39 10° SE 03:30:09 69° SW 03:36:41 10° NW
Resurs 1-4 Rocket 3.4 03:27:56 10° NNE 03:32:44 33° E 03:36:38 14° SSE
SL-08 R/B 3.5 03:32:29 39° SSW 03:34:07 60° W 03:38:59 10° NNW
Cosmos 1602 4.2 03:34:36 34° SSE 03:35:58 54° E 03:39:44 10° NNE
ATLAS 2A CENTAUR R/B 3.8 03:38:20 27° SSW 03:41:15 34° SSE 04:04:41 10° ESE
CENTAUR R/B 3.2 03:35:57 10° NNW 03:43:50 82° NE 03:52:10 10° SE
ARIANE 5 R/B 2.9 03:40:11 10° NNE 03:45:07 58° E 03:48:13 22° S
Cosmos 1452 Rocket 3.5 03:42:56 34° SW 03:45:12 70° WNW 03:50:28 10° NNE
Cosmos 1934 Rocket 3.9 03:42:14 26° S 03:45:57 87° W 03:52:09 10° N
Cosmos 1633 3.4 03:48:48 24° SSE 03:50:34 45° E 03:54:04 10° NNE
AQUA 4.3 03:47:11 10° N 03:51:44 45° WNW 03:53:38 29° SW
ADEOS 3.6 03:46:46 10° N 03:51:59 72° WNW 03:54:43 29° SSW
Okean 1-7 Rocket 3.9 03:51:41 10° NNW 03:56:06 49° W 03:57:55 31° SSW
Cosmos 1420 Rocket 4.1 03:53:20 26° S 03:56:25 76° ESE 04:01:43 10° NNE
Cosmos 1536 2.9 03:57:35 27° S 03:59:44 77° E 04:03:49 10° N
Okean 1 Rocket 3.8 03:59:23 29° WSW 04:00:55 38° WNW 04:05:06 10° N
COSMOS 2487 2.9 03:57:53 10° NNW 04:01:30 63° ENE 04:05:04 10° SSE
Cosmos 489 Rocket 4.5 03:55:42 10° NNW 04:01:52 62° WSW 04:07:26 13° S
SME Rocket 3.5 03:59:55 10° SSE 04:03:34 57° ENE 04:07:36 10° N
UNKNOWN OBJECT B 3.9 04:01:20 10° NNE 04:05:14 41° E 04:08:33 13° SSE
Cosmos 1461 3.3 04:04:34 25° SSW 04:07:13 67° ESE 04:11:50 10° NE
SL-16 R/B 2.5 04:03:05 10° SSE 04:09:19 90° SSE 04:15:36 10° NNW
Okean O Rocket 3.4 04:06:03 10° NE 04:09:45 27° E 04:13:26 10° SSE
Gbstr 26 Del rocket 2.9 04:08:34 25° WSW 04:10:41 63° NW 04:14:24 10° NE
Meteor 2-15 Rocket 4.4 04:09:24 10° N 04:15:34 78° W 04:21:42 10° S
Meteor 1-19 Rocket 4.3 04:09:52 10° NNW 04:15:39 70° W 04:21:24 10° S
Cosmos 1140 Rocket 3.4 04:11:24 10° NNW 04:16:31 70° WSW 04:21:35 10° S
ERS-2 4.0 04:15:52 10° NNW 04:18:29 18° WNW 04:19:48 15° W
NOSS 2-2 (D) 3.6 04:16:07 25° SW 04:18:29 70° NW 04:23:15 10° NNE
Cosmos 1605 Rocket 4.0 04:15:16 18° SSW 04:19:54 68° W 04:26:10 10° N
Cosmos 2123 Rocket 4.2 04:18:09 10° NNW 04:24:17 54° W 04:29:54 12° SSW
EO 1 Del DPAF 3.3 04:21:45 15° S 04:24:56 62° W 04:28:48 10° NNW
Cosmos 1455 Rocket 3.2 04:21:54 13° S 04:25:53 74° E 04:30:20 10° NNE
Cosmos 1850 Rocket 3.9 04:22:59 10° NNW 04:28:13 72° WSW 04:33:27 10° S
CZ-2D R/B 2.2 04:22:51 10° N 04:28:18 78° WNW 04:33:04 14° SSW
Cosmos 1025 Rocket 3.4 04:24:13 10° NNW 04:28:19 45° W 04:31:24 17° SSW
Meteor 1-11 Rocket 4.3 04:25:35 18° SW 04:29:42 46° WNW 04:35:27 10° N
Cosmos 1741 Rocket 4.0 04:24:44 10° NNW 04:30:01 72° WSW 04:35:13 10° S
NOSS 2-2 (C) 4.0 04:30:09 19° WSW 04:32:58 50° NW 04:37:39 10° NNE
Cosmos 1400 Rocket 3.2 04:40:17 17° SW 04:43:02 45° WNW 04:46:50 10° N
Cosmos 1844 Rocket 3.9 04:39:58 13° WSW 04:44:14 29° WNW 04:49:10 10° N
MOS 1-B 4.5 04:39:42 10° N 04:45:29 66° WNW 04:51:10 10° SSW
APEX 3.4 04:46:28 11° S 04:49:04 48° ESE 04:52:14 10° NE
IRS-1D 4.3 04:46:15 10° N 04:50:53 37° WNW 04:55:04 12° SW
Cosmos 1544 Rocket 4.2 04:47:57 14° SW 04:51:29 40° WNW 04:55:38 10° N
USA 129 1.7 04:54:45 10° S 04:56:49 54° WSW 04:58:53 10° NNW
Cosmos 2173 Rocket 4.0 04:50:45 10° S 04:56:50 88° W 05:03:02 10° N
Cosmos 1802 Rocket 4.0 04:57:32 10° S 05:03:41 89° W 05:09:51 10° N
Cosmos 2297 3.8 04:58:55 10° SSW 05:04:33 75° WNW 05:10:17 10° NNE
CZ-4B DEB 4.5 04:59:00 10° NNE 05:04:35 74° ESE 05:10:08 10° S
Centaur AC-125 4.4 05:03:56 10° S 05:05:36 12° SSE 05:08:03 10° SE
Cosmos 2278 Rocket 3.0 05:00:42 10° SW 05:05:51 38° WNW 05:11:09 10° N
BREEZE-M DEB (TANK) 4.3 05:02:30 10° NW 05:05:59 20° N 05:07:59 10° NE
CZ-4B R/B 3.4 05:03:38 10° NNE 05:08:13 76° ESE 05:12:39 10° S
ATLAS 5 CENTAUR R/B 2.5 05:03:31 10° NW 05:09:29 62° WSW 05:15:48 10° SSE
Cosmos 1315 Rocket 3.5 05:05:56 10° SW 05:09:46 38° WNW 05:13:35 10° N
Resurs 1-4 Rocket 3.1 05:07:51 10° N 05:12:27 31° WNW 05:17:02 10° SW
Cosmos 1459 Rocket 4.1 05:06:36 10° SSW 05:12:53 65° W 05:19:10 10° N
IRS-1C Rocket 4.3 05:09:20 10° N 05:14:30 58° WNW 05:19:39 10° SSW
Cosmos 2100 Rocket 4.2 05:09:17 10° SSW 05:15:24 58° W 05:21:39 10° N
Meteor 1-12 Rocket 4.4 05:09:46 10° SSW 05:15:38 74° W 05:21:27 10° N
Cosmos 1486 Rocket 4.4 05:15:17 10° NNW 05:20:38 74° ENE 05:25:58 10° SSE
MOZ.5/SAFIR/RUBIN 5/SL-8 3.9 05:16:56 10° S 05:21:40 63° W 05:26:25 10° NNW
CZ-4B R/B 3.4 05:16:21 10° N 05:22:01 72° WNW 05:27:38 10° SSW
